Weather History for Doha, Qatar

Change the Weather History Date:

Thursday, May 8, 2014

  Actual Average Record
Temperature  
Mean Temperature 89 °F -  
Max Temperature 99 °F 102 °F 109 °F (2001)
Min Temperature 79 °F 78 °F 69 °F (1997)
Cooling Degree Days 24    
Growing Degree Days 39 (Base 50)    
Moisture  
Dew Point 69 °F    
Average Humidity 56    
Maximum Humidity 84    
Minimum Humidity 17    
Precipitation  
Precipitation 0.00 in 0.00 in - ()
Sea Level Pressure  
Sea Level Pressure 29.76 in    
Wind  
Wind Speed 5 mph ()    
Max Wind Speed 16 mph    
Max Gust Speed -    
Visibility 6.0 miles    
Events      
Averages and records for this station are not official NWS values.
T = Trace of Precipitation, MM = Missing Value Source: Averaged Metar Reports

Daily Weather History Graph

Daily Weather History Graph

Search for Another Location

Airport:

Trip Planner

Search our weather history database for the weather conditions in past years. The results will help you decide how hot, cold, wet, or windy it might be!

Date:

Astronomy

May. 08, 2014 Rise Set
Actual Time 4:53 AM AST 6:07 PM AST
Civil Twilight 4:28 AM AST 6:32 PM AST
Nautical Twilight 3:59 AM AST 7:01 PM AST
Astronomical Twilight 3:29 AM AST 7:31 PM AST
Moon 12:24 PM AST (5/8) 12:31 AM AST (5/8)
Length of Visible Light 14h 03m
Length of Day
13h 14m
First Quarter, 62% of the Moon is Illuminated
May 8
First Quarter
May 14
Full
May 21
Last Quarter
May 28
New
Jun 5
First Quarter

Hourly Weather History & Observations

Time (AST) Temp. Heat Index Dew Point Humidity Pressure Visibility Wind Dir Wind Speed Gust Speed Precip Events Conditions
12:00 AM 84 °F - 63 °F 39% 29.75 in 6 mi SE 4.6 mph - -  
12:00 AM 84.2 °F 85.0 °F 62.6 °F 48% 29.74 in - SE 4.6 mph - N/A   Clear
12:30 AM 84.2 °F 86.6 °F 66.2 °F 55% 29.74 in - Variable 2.3 mph - N/A   Clear
1:00 AM 84.2 °F 86.6 °F 66.2 °F 55% 29.74 in - South 3.5 mph - N/A   Clear
1:30 AM 84.2 °F 87.3 °F 68.0 °F 58% 29.71 in - South 4.6 mph - N/A   Clear
2:00 AM 84.2 °F 87.3 °F 68.0 °F 58% 29.71 in - Variable 2.3 mph - N/A   Clear
2:30 AM 82.4 °F 85.4 °F 68.0 °F 62% 29.71 in - Variable 2.3 mph - N/A   Clear
3:00 AM 81 °F - 68 °F 56% 29.74 in 7 mi 2.3 mph - -  
3:00 AM 80.6 °F 83.2 °F 68.0 °F 65% 29.74 in - Variable 2.3 mph - N/A   Clear
3:30 AM 80.6 °F 83.9 °F 69.8 °F 70% 29.74 in - Variable 1.2 mph - N/A   Clear
4:00 AM 80.6 °F 83.9 °F 69.8 °F 70% 29.74 in - Variable 2.3 mph - N/A   Clear
4:30 AM 78.8 °F - 68.0 °F 69% 29.74 in - SE 1.2 mph - N/A   Clear
5:00 AM 78.8 °F - 69.8 °F 74% 29.74 in - Calm Calm - N/A   Clear
5:30 AM 80.6 °F 84.6 °F 71.6 °F 74% 29.77 in - SSW 2.3 mph - N/A   Clear
6:00 AM 82 °F - 72 °F 66% 29.78 in 5 mi 4.6 mph - -   Haze
6:00 AM 82.4 °F 88.2 °F 73.4 °F 74% 29.77 in 5.0 mi Variable 2.3 mph - N/A   Unknown
6:30 AM 84.2 °F 89.6 °F 71.6 °F 66% 29.77 in 5.0 mi SSE 3.5 mph - N/A   Unknown
7:00 AM 84.2 °F 90.9 °F 73.4 °F 70% 29.80 in 5.6 mi SSE 3.5 mph - N/A   Unknown
7:30 AM 86.0 °F 93.4 °F 73.4 °F 66% 29.80 in - SSE 5.8 mph - N/A   Clear
8:00 AM 89.6 °F 91.1 °F 64.4 °F 43% 29.80 in - South 8.1 mph - N/A   Clear
9:00 AM 94 °F - 55 °F 17% 29.82 in 7 mi South 9.2 mph - -  
9:00 AM 95.0 °F 93.0 °F 55.4 °F 26% 29.80 in - South 9.2 mph - N/A   Clear
10:00 AM 96.8 °F 95.8 °F 57.2 °F 27% 29.80 in - SSE 5.8 mph - N/A   Clear
11:00 AM 96.8 °F 101.8 °F 68.0 °F 39% 29.80 in - SE 10.4 mph - N/A   Clear
11:30 AM 96.8 °F 103.1 °F 69.8 °F 41% 29.80 in - ESE 9.2 mph - N/A   Clear
12:00 PM 97 °F - 68 °F 29% 29.80 in 7 mi SE 9.2 mph - -  
12:00 PM 96.8 °F 101.8 °F 68.0 °F 39% 29.80 in - SE 9.2 mph - N/A   Clear
12:30 PM 98.6 °F 102.8 °F 66.2 °F 35% 29.77 in - SE 9.2 mph - N/A   Clear
1:00 PM 98.6 °F 100.0 °F 62.6 °F 30% 29.77 in - ESE 12.7 mph - N/A   Clear
2:00 PM 95.0 °F 95.2 °F 60.8 °F 32% 29.77 in - ESE 13.8 mph - N/A   Clear
2:30 PM 93.2 °F 97.7 °F 68.0 °F 44% 29.74 in - East 16.1 mph - N/A   Clear
3:00 PM 94 °F - 68 °F 33% 29.76 in 9 mi East 15.0 mph - -  
3:00 PM 95.0 °F 99.5 °F 68.0 °F 41% 29.74 in - East 15.0 mph - N/A   Clear
3:30 PM 91.4 °F 98.4 °F 71.6 °F 52% 29.74 in - East 13.8 mph - N/A   Clear
4:00 PM 91.4 °F 100.1 °F 73.4 °F 55% 29.74 in - East 12.7 mph - N/A   Clear
4:30 PM 89.6 °F 98.2 °F 73.4 °F 59% 29.74 in - East 12.7 mph - N/A   Clear
5:00 PM - - - N/A% - - East 12.7 mph - N/A   Clear
5:30 PM 87.8 °F 97.6 °F 75.2 °F 66% 29.74 in - East 11.5 mph - N/A   Clear
6:00 PM 87 °F - 74 °F 57% 29.77 in 6 mi ENE 6.9 mph - -  
6:00 PM 87.8 °F 95.6 °F 73.4 °F 62% 29.74 in - ENE 6.9 mph - N/A   Clear
6:30 PM 87.8 °F 95.6 °F 73.4 °F 62% 29.77 in - NE 5.8 mph - N/A   Clear
7:00 PM 86.0 °F 95.1 °F 75.2 °F 70% 29.77 in - NE 5.8 mph - N/A   Clear
7:30 PM 86.0 °F 96.9 °F 77.0 °F 74% 29.77 in 5.6 mi NNE 5.8 mph - N/A   Unknown
8:00 PM 84.2 °F 94.1 °F 77.0 °F 79% 29.77 in 5.6 mi NNE 5.8 mph - N/A   Unknown
8:30 PM 84.2 °F 96.1 °F 78.8 °F 84% 29.80 in 5.0 mi NE 4.6 mph - N/A   Unknown
9:00 PM 84 °F - 76 °F 71% 29.80 in 6 mi ENE 4.6 mph - -   Haze
9:00 PM 84.2 °F 94.1 °F 77.0 °F 79% 29.80 in 5.6 mi ENE 4.6 mph - N/A   Unknown
10:00 PM 82.4 °F 89.5 °F 75.2 °F 79% 29.77 in - East 3.5 mph - N/A   Clear
11:00 PM 84.2 °F 88.4 °F 69.8 °F 62% 29.77 in - SE 5.8 mph - N/A   Clear